AQI (48)

Current Conditions for Foresthill, CA. Partly Cloudy, Dry   
Visibility: 9 miles
Cloud ht: 5727 ft
Space WX Alerts: CONTINUED ALERT:  Electron 2MeV Integral Flux exceeded 1000pfu ( Latest Alert ) - Issue Time: 2019 Aug 17 1350 UTC

  Summary / Temperature 

Current Temperature
79.6°F
26.4°C
(24/hr Ago)
78.5°F
(Apparent temp)
81.4°F
Comfortable
Heat Index
79.8°F 

84.7°F/ 29.3°C
Little or no discomfort

 Temp Rate:

 24/hr Difference:

 Avg Running Temp:

 Todays High:

 Todays Low:

 Y-days High:

 Y-days Low:

 Todays HeatIdx:

 Y-days HeatIdx:

 Evapotranspiration:

-0.7°F/hr 

+1.1°F

81.1°F

82.3°F 2:56pm

61.6°F 6:43am

83.0°F 2:19pm

64.9°F 7:53am

81.7°F 4:04pm

82.0°F 1:31pm

0.166 in

115' Above Ground

 Temperature:

 6'AGL VRS 115'AGL:

 Avg Running Temp:

 Humidity:

 Todays High:

 Todays Low:

 Y-days High:

 Y-days Low:

80.0°F 

+0.40000000000001°F

81.7°F

42% 

83.0°F 3:49pm

66.0°F 4:21am

82.0°F 4:26pm

67.0°F 5:18am

Temp & Humidity Graphs

  Wind 

Wind Speed

 Calm

Gusting to

 1.0 mph

Calm

270°  

Calm

 Avg speed:

 Wind Run:

 Peak Gust:

Calm 

20.0 miles

  12.0 mph 4:30pm

  Almanac  

Moon age: 20 days,15 hours,31 minutes,66%

Waning Gibbous
65%
Illuminated
20 days in cycle

 Moonrise:

 Moonset:

 Sunrise:

 Sunset:

 Solar Noon:

11:13pm

11:59am

6:23am

7:51pm

1:06pm

2min 24s less daylight tomorrow 

  Solar Radiation 

(Current Solar)
  200 W/m2 (60%)
(Todays High)
 879 W/m2@2:43pm
Feels like: 88.9°F in the sun

Rain

 Rain Today:

 Rain Rate (/hr):

 Rain last hour:

 Rain Yesterday:

 This Month:

 Season Total:

79 Days Since Last Rain Day

0.00 in

0.000 in

0.00 in

0.00 in

0.00 in

0.00 in

Updated Time

Updated: 8/21/19  6:06pm

(Updated  sec ago)

Humidity & Barometer

 Humidity:

 Wetbulb:

 Dew Point:

 Barometer:

44% 

65.4°F 

55.8°F 

29.865 inHg 

 Baro Trend:  Falling Slowly 
Northern Calif
Preparedness
Fire 
Level 

    UV Index  

(Current UV)
0.8  Low
(Todays High) @ 1:13pm
7.5   High

National Weather Service Forecast

This
Afternoon
This Afternoon: Sunny
Sunny
Tonight

Tonight: Mostly Clear
Mostly Clear
Thursday

Thursday: Sunny
Sunny
Thursday
Night
Thursday Night: Clear
Clear
Friday

Friday: Sunny
Sunny
Friday
Night
Friday Night: Clear
Clear
Hi 87 °F Lo 65 °F ↑ Hi 88 °F Lo 67 °F Hi 89 °F Lo 68 °F

Foresthill Probe 2 Stats  
Foresthill Probe 2: is located on Thomas Street
at 3000 feet. The main Foresthill Weather site
is located on Melody ln at the 2860 foot elevation

Calm
79.7°F
26.5°C
Temp Rate:
-1.3°F
Calm
Gusting to
None
(Humidity)
44%
Calm
184°  
Updated: 21/08/19 - 18:02:29
 Todays High: 85.6°F 14:03
 Todays Low: 60.0°F 06:56
 Rain Today: 0.00 in
 Season Total: 0.00 in

Foresthill Wx: Monthly,Yearly, Highs and Lows 

Foresthill  
This Weather Data is coming from the main Foresthill
Weather site located on Melody ln at the 2860 foot
elevation
Not Foresthill Probe 2
Weather Data
Month
  High
Month
  Low
Year
High
Year
Low
Temp 92.2°F
8/16/19
57.1°F
8/11/19
92.2°F
8/16/19
24.5°F
2/18/19
Humidity 79%
8/11/19
23%
8/4/19
100%
1/9/19
14%
4/22/19
Heat Index 90.4°F
8/16/19
60.4°F
8/10/19
90.8°F
7/27/19
30.1°F
2/22/19
Wind Chill 92.2°F
8/16/19
55.5°F
8/11/19
92.2°F
8/16/19
11.5°F
2/11/19
Wind Gust 20 mph
8/1/19
0 mph
8/1/19
48 mph
2/27/19
0 mph
1/1/19
Barometer 30.07 in
8/11/19
29.71 in
8/17/19
30.54 in
1/23/19
29.37 in
2/14/19
ET 0.21 in
8/1/19
0.00 in
8/1/19
0.27 in
6/9/19
0.00 in
1/1/19
Dew Point 62.4°F
8/5/19
39.5°F
8/21/19
66.8°F
6/17/19
7.7°F
1/1/19
Pacific Satellite US Radar Satellite Imagery Sacramento,CA.  (click to enlarge)
NWS Weather Forecast - Summary
Updated: Wednesday, August 21, 2019 - 3:19pm PDT
Current Interstate Highway Conditions for I-80 & US-50

[I 80: IN THE SAN FRANCISCO BAY AREA - SOLANO CO]
the eastbound & westbound connectors to southbound i 880 /in oakland/ (alameda co) are closed from 11:00pm each night to 7:00am each morning tuesday thru friday thru 8/23/19 - due to construction - detours are available
the westbound connector to southbound sr 113 /in dixon/ (SOLANO CO) is closed from 10:00pm each night to 5:00am each morning monday thru friday thru 8/23/19 - due to construction - a detour is available

[I 80: IN THE NORTHERN CALIFORNIA AREA & SIERRA NEVADA]
no traffic restrictions are reported for this area.

[US 50: IN THE SACRAMENTO VALLEY & THE LAKE TAHOE BASIN]
the eastbound connector to southbound i 5 /in sacramento/ (sacramento co)   Is closed from 9:00pm each night to 6:00am each morning tuesday thru saturday thru 8/24/19 - due to construction - a detour is available
  1-way controlled traffic at various locations from 0. 5 mi west of kyburz to silver fork rd /in kyburz/ (EL DORADO CO) from 6:00am to 8:00pm wednesday thru thursday thru 8/22/19 - due to construction
  1-way controlled traffic at various locations from 1. 5 mi east of kyburz /at 34 mile stone rd/ to 4 mi west of strawberry /at wrights lake rd/ (EL DORADO CO) from 6:00pm each night to 10:00am each morning monday thru friday thru 8/23/19 - due to construction
  1-way controlled traffic at various locations from 7. 7 mi west to 6. 7 mi west of south lake tahoe /at johnson pass rd/ (EL DORADO CO) from 3:00pm each afternoon to 10:00am each morning monday thru friday thru 8/23/19 due to construction
NWS Weather Forecast: This Afternoon and Tonight (Updated: Wed, 21-Aug-2019 2:29pm PDT)
This
Afternoon
This Afternoon: Sunny
Sunny

Hi 87 °F
NWS forecast: Sunny, with a high near 87. West wind around 7 mph.
Tonight

Tonight: Mostly Clear
Mostly Clear

Lo 65 °F ↑
NWS forecast: Mostly clear. Low around 65, with temperatures rising to around 67 overnight. Northeast wind 2 to 7 mph.
YR.NO 10 Day Weather forecast
Last update: 08/21/2019 @ 12:35
Next update: 08/22/2019 @ 01:00
Provided by: 22
      Temperature Precipitation Pressure Wind  
Today
08/21/2019
16:00 18:00 86°F   29.86 inHg Light breeze from west 6 mph
  18:00 00:00 84°F   29.84 inHg Light breeze from west 5 mph
    (Click to enlarge)
meteogram

    Forecast for next 9 days

      Temperature Precip Pressure Wind  
Thursday
08/22/2019
00:00 06:00 64°F   29.84 inHg Light breeze from east-northeast 4 mph
  06:00 12:00 59°F   29.78 inHg Light breeze from east-northeast 5 mph
  12:00 18:00 84°F   29.79 inHg Light breeze from west 7 mph
  18:00 00:00 86°F   29.70 inHg Light breeze from west-southwest 4 mph
      Temperature Precip Pressure Wind  
Friday
08/23/2019
00:00 06:00 68°F   29.75 inHg Light air from east-northeast 3 mph
  06:00 12:00 61°F   29.77 inHg Light breeze from east-northeast 6 mph
  12:00 18:00 88°F   29.81 inHg Light breeze from west-southwest 6 mph
  18:00 00:00 88°F   29.77 inHg Light breeze from west-southwest 6 mph
      Temperature Precip Pressure Wind  
Saturday
08/24/2019
00:00 06:00 70°F   29.85 inHg Light air from east-northeast 2 mph
  05:00 11:00 63°F   29.85 inHg Light breeze from east-northeast 5 mph
  11:00 17:00 86°F   29.92 inHg Light breeze from west-southwest 5 mph
  17:00 23:00 88°F   29.88 inHg Light breeze from west-southwest 6 mph
  23:00 05:00 72°F   29.94 inHg Light air from east 2 mph
      Temperature Precip Pressure Wind  
Sunday
08/25/2019
05:00 11:00 61°F   29.94 inHg Light breeze from east-northeast 5 mph
  11:00 17:00 88°F   29.96 inHg Light breeze from west-southwest 5 mph
  17:00 23:00 90°F   29.89 inHg Light breeze from west-southwest 7 mph
  23:00 05:00 72°F   29.92 inHg Light air from east 2 mph
      Temperature Precip Pressure Wind  
Monday
08/26/2019
05:00 11:00 61°F   29.88 inHg Light breeze from east-northeast 6 mph
  11:00 17:00 88°F   29.88 inHg Light breeze from southwest 5 mph
  17:00 23:00 90°F   29.81 inHg Light breeze from southwest 6 mph
  23:00 05:00 70°F   29.84 inHg Light breeze from east 4 mph
      Temperature Precip Pressure Wind  
Tuesday
08/27/2019
05:00 11:00 59°F   29.81 inHg Light breeze from east-northeast 5 mph
  11:00 17:00 90°F   29.82 inHg Light breeze from southwest 5 mph
  17:00 23:00 90°F   29.78 inHg Light breeze from southwest 6 mph
  23:00 05:00 70°F   29.84 inHg Light breeze from east 4 mph
      Temperature Precip Pressure Wind  
Wednesday
08/28/2019
05:00 11:00 59°F   29.83 inHg Light breeze from east-northeast 4 mph
  11:00 17:00 88°F   29.88 inHg Light air from west-southwest 3 mph
  17:00 23:00 90°F   29.84 inHg Light breeze from west-southwest 6 mph
  23:00 05:00 72°F   29.92 inHg Light breeze from east 4 mph
      Temperature Precip Pressure Wind  
Thursday
08/29/2019
05:00 11:00 63°F   29.94 inHg Light breeze from east-northeast 5 mph
  11:00 17:00 90°F   29.98 inHg Light breeze from west-southwest 5 mph
  17:00 23:00 91°F   29.92 inHg Light breeze from west 6 mph
  23:00 05:00 68°F   29.96 inHg Light air from east-northeast 2 mph
      Temperature Precip Pressure Wind  
Friday
08/30/2019
05:00 11:00 63°F   29.95 inHg Light breeze from east-northeast 7 mph
  11:00 17:00 91°F   29.96 inHg Light breeze from west-southwest 5 mph
  17:00 23:00 91°F   29.91 inHg Light breeze from west-southwest 7 mph
  23:00 05:00 70°F   29.94 inHg Light air from east 3 mph
How Close Are We To this Month's Temperature Record ?
Updated Wednesday, Aug 21, 2019- 6:00:00 PM

Current Temperature: 79.6°F

August's High: Temperature Record 97.8°F - Set on Sat, Aug 11, 2012 - 2:34:00 PM
We are currently 18.2°F Less than this Month's record High

August's Low: Temperature Record 50.6°F - Set on Thu, Aug 30, 2018 - 7:12:20 AM
We are currently 29°F More than this Month's record Low

Weather History For Wednesday, August 21, 2019


On this Day - In Weather History ...
Data courtesy of weatherforyou.com
powered by Cumulus v1.9.3 (1059)
Ambient Weather VWS v14.00
Top Contact Website Map Copyright © 2007 - 2019 Foresthillweather.com Never base important decisions on this or any weather information obtained from the Internet